Redding, CA

6:19 PM PST on November 21, 2019 (GMT -0800)
Redding Municipal

Weather History for KRDD - September, 2019

Change the Weather History Date:

Friday, September 20, 2019

  Actual Average Record
Temperature  
Mean Temperature 72 °F -  
Max Temperature 85 °F 90 °F 105 °F (1994)
Min Temperature 59 °F 57 °F 39 °F (1947)
Degree Days  
Heating Degree Days 0    
Cooling Degree Days 7    
Growing Degree Days 22 (Base 50)    
Moisture  
Dew Point 45 °F    
Average Humidity 42    
Maximum Humidity 60    
Minimum Humidity 23    
Precipitation  
Precipitation 0.00 in 0.02 in 0.42 in (1984)
Month to date precipitation 0.24 0.38  
Year to date precipitation 32.51 21.51  
Sea Level Pressure  
Sea Level Pressure 29.95 in    
Wind  
Wind Speed 9 mph (North)    
Max Wind Speed 21 mph    
Max Gust Speed 26 mph    
Visibility 10 miles    
Events      
T = Trace of Precipitation, MM = Missing Value Source: NWS Daily Summary

Daily Weather History Graph

Daily Weather History Graph

Search for Another Location

Airport or City:

Astronomy

Sep. 20, 2019 Rise Set
Actual Time 6:54 AM PDT 7:09 PM PDT
Civil Twilight 6:27 AM PDT 7:37 PM PDT
Nautical Twilight 5:55 AM PDT 8:09 PM PDT
Astronomical Twilight 5:22 AM PDT 8:41 PM PDT
Moon 11:02 PM PDT (9/20) 1:06 PM PDT (9/20)
Length of Visible Light 13h 09m
Length of Day
12h 15m
Waning Gibbous, 64% of the Moon is Illuminated
Sep 20
Waning Gibbous
Sep 21
Last Quarter
Sep 28
New
Oct 5
First Quarter
Oct 13
Full

Hourly Weather History & Observations

Time (PDT) Temp. Dew Point Humidity Pressure Visibility Wind Dir Wind Speed Gust Speed Precip Events Conditions
12:53 AM 63.0 °F 46.0 °F 54% 29.95 in 10.0 mi NNW 6.9 mph - N/A   Clear
1:53 AM 62.1 °F 46.9 °F 58% 29.96 in 10.0 mi NNE 9.2 mph - N/A   Clear
2:53 AM 64.0 °F 46.0 °F 52% 29.95 in 10.0 mi North 9.2 mph - N/A   Clear
3:53 AM 61.0 °F 46.0 °F 58% 29.95 in 10.0 mi North 6.9 mph - N/A   Clear
4:53 AM 62.1 °F 46.0 °F 56% 29.96 in 10.0 mi North 3.5 mph - N/A   Clear
5:53 AM 63.0 °F 45.0 °F 52% 29.96 in 10.0 mi North 8.1 mph - N/A   Clear
6:53 AM 63.0 °F 45.0 °F 52% 29.97 in 10.0 mi NNW 9.2 mph - N/A   Clear
7:53 AM 64.9 °F 46.0 °F 50% 29.99 in 10.0 mi NNW 11.5 mph - N/A   Clear
8:53 AM 68.0 °F 45.0 °F 43% 30.00 in 10.0 mi North 12.7 mph - N/A   Clear
9:53 AM 72.0 °F 44.1 °F 37% 29.99 in 10.0 mi NNE 18.4 mph 24.2 mph N/A   Clear
10:53 AM 75.0 °F 42.1 °F 31% 29.99 in 10.0 mi North 15.0 mph - N/A   Clear
11:53 AM 79.0 °F 41.0 °F 26% 29.97 in 10.0 mi North 15.0 mph - N/A   Clear
12:53 PM 79.0 °F 39.9 °F 25% 29.96 in 10.0 mi North 16.1 mph 24.2 mph N/A   Clear
1:53 PM 81.0 °F 42.1 °F 25% 29.95 in 10.0 mi North 15.0 mph 21.9 mph N/A   Clear
2:53 PM 82.0 °F 43.0 °F 25% 29.93 in 10.0 mi North 11.5 mph 21.9 mph N/A   Clear
3:53 PM 84.0 °F 44.1 °F 25% 29.91 in 10.0 mi NE 11.5 mph - N/A   Clear
4:53 PM 84.9 °F 44.1 °F 24% 29.90 in 10.0 mi Variable 6.9 mph - N/A   Clear
5:53 PM 84.9 °F 42.1 °F 22% 29.88 in 10.0 mi NNE 8.1 mph - N/A   Clear
6:53 PM 81.0 °F 45.0 °F 28% 29.89 in 10.0 mi NE 8.1 mph - N/A   Clear
7:53 PM 78.1 °F 46.0 °F 32% 29.91 in 10.0 mi NE 10.4 mph - N/A   Clear
8:53 PM 75.0 °F 46.0 °F 36% 29.93 in 10.0 mi North 8.1 mph - N/A   Clear
9:53 PM 73.9 °F 46.0 °F 37% 29.95 in 10.0 mi North 8.1 mph - N/A   Clear
10:53 PM 69.1 °F 46.0 °F 44% 29.96 in 10.0 mi North 10.4 mph - N/A   Clear
11:53 PM 66.0 °F 46.9 °F 50% 29.96 in 10.0 mi NNE 8.1 mph - N/A   Clear